Temperature
18 18 19 19 19 19 19 19 19 19 19 19 19 19 19 19 19 19 18 18 18 18 18 18 18 18 18 18 18 18 18 18 17 17 17 17 17 17 17 17 17 17 16
19 19 19 19 19 19 19 19 19 19 19 19 19 19 19 19 19 18 18 18 18 18 18 18 18 18 18 18 18 18 18 17 17 17 17 17 17 17 17 17 17 16 16
19 19 19 19 19 19 19 19 19 19 19 19 19 19 19 18 18 18 18 18 18 18 18 18 18 18 18 18 18 17 17 17 17 17 17 17 17 17 17 17 17 16 16
20 19 19 19 19 19 19 19 19 19 19 19 19 18 18 18 18 18 18 18 18 18 18 18 18 18 18 18 18 17 17 17 17 17 17 17 17 17 17 17 17 17 16
20 19 19 19 19 19 19 19 19 19 19 19 18 18 18 18 18 18 18 18 18 18 18 18 18 18 18 18 17 17 17 17 17 17 17 17 17 17 17 17 17 16 16
20 20 20 19 19 19 19 19 19 19 19 19 18 18 18 18 18 18 18 18 18 18 18 18 18 18 18 17 17 17 17 17 17 17 17 17 17 17 17 17 16 16 16
20 20 19 19 19 19 19 19 19 19 19 19 18 18 18 18 18 18 18 18 18 18 18 18 18 17 17 17 17 17 17 17 17 17 17 17 17 17 17 17 16 16 16
20 20 19 19 19 19 19 19 19 19 19 18 18 18 18 18 18 18 18 18 18 18 18 18 17 17 17 17 17 17 17 17 17 17 17 17 17 17 17 17 17 16 16
20 20 20 19 19 19 19 19 19 19 18 18 18 18 18 18 18 18 18 18 18 18 18 17 17 17 17 17 17 17 17 17 17 17 17 17 17 17 17 17 17 17 16
20 20 19 19 19 19 19 19 19 19 18 18 18 18 18 18 18 18 18 18 18 18 17 17 17 17 17 17 17 17 17 17 17 17 17 17 17 17 17 17 17 17 16
19 19 19 19 19 19 19 19 19 18 18 18 18 18 18 18 18 18 18 18 18 17 17 17 17 17 17 17 17 17 17 17 17 17 17 17 17 17 17 17 17 17 16
19 19 19 19 19 19 19 19 19 18 18 18 18 18 18 18 18 18 18 18 18 17 17 17 17 17 17 17 17 17 17 17 17 17 17 17 17 17 17 17 17 17 17
20 20 20 19 19 19 19 19 19 19 18 18 18 18 18 18 18 18 18 18 18 17 17 17 17 17 17 17 17 17 17 17 17 17 17 17 17 17 17 17 17 17 17
20 20 20 20 19 19 19 19 19 19 19 18 18 18 18 18 18 18 18 18 18 18 17 17 17 17 17 17 17 17 17 17 17 17 17 17 17 17 17 17 17 17 17
21 20 20 20 20 19 19 19 19 19 19 18 18 18 18 18 18 18 18 18 18 18 18 17 17 17 17 17 17 17 17 17 17 17 17 17 17 17 17 17 17 17 17
21 21 20 20 20 20 19 19 19 19 19 19 18 18 18 18 18 18 18 18 18 18 18 17 17 17 17 17 17 17 17 17 17 17 17 17 17 17 17 17 17 17 17
21 21 21 20 20 20 19 19 19 19 19 19 18 18 18 18 18 18 18 18 18 18 18 17 17 17 17 17 17 17 17 17 17 17 17 17 17 17 17 17 17 17 17
21 21 21 20 20 20 19 19 19 19 18 18 18 18 18 18 18 18 18 18 18 18 17 17 17 17 17 17 17 17 17 17 17 17 17 17 17 17 17 17 17 17 16
21 21 20 20 20 20 19 19 19 19 18 18 18 18 18 18 18 18 18 18 17 17 17 17 17 17 17 17 17 17 17 17 17 17 17 17 17 17 17 17 16 16 16
21 21 21 20 20 20 19 19 19 18 18 18 18 18 18 18 18 18 18 17 17 17 17 17 17 17 17 17 17 17 17 17 17 17 17 17 17 17 17 17 16 16 16
21 21 20 20 20 20 19 19 19 19 19 18 18 18 18 18 18 18 18 17 17 17 17 17 17 17 17 17 17 17 17 17 17 17 17 17 17 17 17 17 16 16 16
21 21 21 20 20 20 20 19 19 19 19 19 18 18 18 18 18 18 18 17 17 17 17 17 17 17 17 17 17 17 17 17 17 17 17 17 17 17 17 17 17 17 16
22 21 21 21 20 20 20 19 19 18 18 18 18 18 18 18 18 18 18 17 17 17 17 17 17 17 17 17 17 17 17 17 17 17 18 18 17 17 17 17 17 17 17
22 22 21 21 20 20 19 19 19 19 19 19 19 18 18 18 18 18 18 17 17 17 17 17 17 17 17 17 17 17 17 17 17 17 17 17 17 17 17 17 17 17 17
22 22 21 21 20 20 19 19 19 19 19 19 19 18 18 18 18 18 18 17 17 17 17 17 17 17 17 17 17 17 17 17 17 17 17 17 18 18 17 17 17 17 17
22 22 21 21 20 20 19 19 19 19 19 19 19 18 18 18 18 18 18 17 17 17 17 17 17 17 17 17 17 17 17 17 17 17 17 17 17 18 18 17 17 17 17
Wind_Speed
5 8 14 15 16 17 18 19 19 20 20 20 20 20 20 19 19 18 18 18 18 18 18 18 18 18 19 19 19 19 19 19 19 19 19 19 19 19 19 19 18 17 18
9 12 16 16 16 17 17 18 19 19 19 19 19 19 19 19 18 18 18 18 18 18 19 18 18 19 19 19 19 19 19 19 19 19 19 18 18 18 18 17 16 16 18
11 13 16 16 16 16 16 18 18 18 18 18 18 18 18 18 18 18 18 18 18 18 18 18 19 19 19 19 19 18 18 18 18 18 17 16 16 17 17 17 17 18 17
12 13 15 16 16 16 16 17 17 18 18 18 17 17 18 17 17 17 17 18 18 18 18 18 18 18 18 18 18 18 18 18 18 16 14 14 14 16 17 17 17 17 16
10 13 15 17 17 16 16 16 17 17 17 17 17 17 17 17 17 17 17 17 17 17 17 18 18 17 17 16 16 17 17 16 16 14 13 13 14 15 16 16 16 16 16
9 12 16 17 17 16 16 16 16 16 16 16 16 16 16 16 16 16 16 16 16 16 16 16 16 16 15 15 16 16 16 16 15 13 13 13 13 15 15 15 15 15 15
9 11 15 17 17 16 16 15 15 15 15 15 15 15 15 15 15 15 15 15 15 15 15 16 15 14 14 15 15 15 15 15 13 12 12 12 13 14 14 14 14 14 14
10 10 14 17 16 16 15 15 15 15 15 14 14 14 14 14 14 14 14 14 14 14 14 14 14 13 13 14 14 14 14 14 12 11 11 11 12 13 14 14 14 13 13
8 9 10 14 15 15 15 14 14 14 14 14 14 14 14 14 13 13 13 13 13 13 13 13 13 12 12 13 14 13 13 13 11 10 10 10 12 13 13 13 13 13 13
7 6 7 10 11 12 13 14 14 13 13 13 13 13 13 13 13 12 12 12 12 12 12 12 11 11 11 12 12 12 12 12 10 9 9 9 11 12 12 12 12 12 12
8 6 6 7 9 10 11 12 13 13 12 12 12 12 11 10 10 10 10 11 11 11 11 11 10 10 10 10 11 12 11 9 9 8 8 10 11 10 11 11 11 11 11
12 9 6 7 8 9 10 10 9 9 10 9 9 10 10 9 8 8 9 10 10 10 9 9 9 9 9 8 9 10 9 9 8 7 8 10 10 10 10 10 10 10 10
12 11 8 7 8 7 6 8 7 8 8 9 9 10 10 8 6 6 6 6 6 7 7 7 7 7 7 7 7 7 8 8 7 7 8 9 9 9 9 9 9 9 9
12 11 9 8 7 7 7 7 7 6 7 7 8 10 9 6 4 4 4 4 5 5 5 5 5 5 5 5 6 6 7 6 6 7 8 9 9 9 9 8 8 8 8
13 12 11 9 8 7 6 6 7 6 6 7 8 8 8 6 4 4 3 3 3 4 4 3 3 3 3 4 5 6 6 6 7 7 7 9 10 9 9 8 8 8 8
14 12 11 11 9 8 6 5 6 7 8 8 7 8 9 7 5 4 3 3 2 3 3 3 2 2 2 3 3 4 5 6 7 7 7 8 10 10 9 9 9 9 8
14 12 12 11 9 8 7 7 7 7 8 7 7 9 9 8 7 6 3 3 3 3 3 2 3 3 2 2 2 3 4 5 6 7 7 7 8 10 11 11 10 10 9
12 12 12 13 11 9 8 7 6 7 8 8 8 9 10 10 9 7 4 3 4 4 3 2 2 2 1 1 1 2 2 3 5 6 7 7 7 8 9 11 11 11 11
13 13 12 11 12 11 8 7 7 7 8 8 9 9 10 11 11 8 6 5 5 4 3 2 2 2 2 2 2 1 2 3 4 6 7 8 9 9 9 10 11 12 12
12 12 12 11 10 10 7 5 4 5 5 7 8 10 11 11 11 10 7 6 6 4 3 2 2 1 1 2 1 1 1 2 3 5 7 8 9 10 11 10 10 11 13
12 12 13 12 11 10 7 7 6 6 5 5 7 10 12 12 12 10 6 6 6 5 5 4 2 2 1 1 1 1 1 1 3 4 6 6 8 10 11 11 11 11 11
15 15 13 13 12 12 10 7 4 4 4 5 5 8 11 12 12 11 8 6 6 5 5 5 4 2 2 3 3 1 2 3 2 3 4 6 8 9 10 12 12 13 13
16 16 15 13 12 11 10 6 4 3 2 3 4 5 8 12 12 11 10 8 7 6 6 7 6 5 3 2 2 3 3 3 2 2 3 5 5 6 7 10 12 13 14
16 13 12 12 12 11 11 10 9 7 7 7 5 6 6 9 10 11 11 10 8 6 6 7 6 5 5 4 2 2 2 3 2 2 2 3 4 6 7 7 9 12 13
13 12 12 11 11 10 11 11 10 8 6 4 4 6 6 6 9 10 11 9 8 7 7 7 6 6 5 5 4 3 2 2 2 3 3 3 3 4 5 7 8 10 12
9 10 11 11 11 11 11 11 11 10 8 6 6 7 6 5 6 8 9 9 8 7 7 7 7 7 6 5 5 4 4 3 4 4 5 4 4 4 4 5 6 8 10
Wind_Direction
147 146 133 124 117 113 112 113 112 112 112 113 114 115 115 114 113 112 110 108 107 106 106 107 107 107 107 106 106 107 108 108 108 108 107 106 105 103 103 102 101 101 102
143 145 137 129 122 117 115 115 114 114 114 114 115 115 116 116 115 114 112 109 108 107 107 107 108 107 107 107 107 107 108 108 109 108 107 106 106 105 105 104 104 105 104
136 141 137 131 125 121 119 118 116 116 116 115 116 116 116 117 116 115 113 111 110 109 108 108 108 108 107 107 107 107 106 106 106 105 103 102 105 107 107 106 105 105 104
136 136 137 134 129 125 123 120 117 116 116 116 116 117 117 117 116 116 114 113 111 111 110 110 109 109 109 109 109 108 108 107 105 103 100 102 106 108 108 106 106 107 107
130 135 141 136 132 128 125 122 120 119 118 117 118 118 118 118 117 117 116 115 114 113 113 112 111 111 111 112 112 110 110 109 106 102 99 101 106 110 109 110 110 109 108
128 138 144 139 135 131 128 126 124 122 121 120 120 120 120 120 120 119 117 117 116 116 115 114 113 113 113 115 114 113 113 111 107 104 102 105 110 113 113 113 112 110 109
133 140 145 142 139 136 133 131 129 126 125 124 123 122 121 121 121 121 119 118 118 117 116 115 114 113 115 118 117 115 115 116 112 108 106 107 112 114 114 114 114 111 110
139 139 147 147 144 142 139 136 133 131 129 128 127 126 124 123 122 122 121 121 120 119 118 117 116 115 118 121 120 119 119 120 118 114 111 113 117 117 116 115 115 114 113
134 135 142 148 148 146 144 141 139 137 135 133 132 130 128 125 124 123 123 123 122 122 121 120 118 115 119 121 124 125 126 124 122 120 120 120 123 123 122 120 119 118 116
130 131 134 139 143 146 148 147 145 143 141 138 136 133 131 129 127 125 124 124 124 124 123 122 119 115 119 122 126 130 130 127 125 124 125 130 129 128 127 125 125 124 122
152 140 136 136 139 142 147 153 151 148 147 143 140 137 129 121 123 125 129 130 128 127 125 123 120 114 114 119 127 129 128 130 132 132 135 139 138 136 133 131 130 129 128
170 165 151 145 144 147 153 149 145 142 141 136 133 127 123 121 125 128 136 134 132 128 125 121 118 110 107 110 120 127 130 137 138 144 150 149 149 147 142 139 138 136 133
173 172 164 156 152 151 143 140 136 134 134 133 133 132 132 125 123 122 118 118 119 116 107 103 99 101 109 116 121 131 140 146 151 155 160 160 159 156 152 150 147 144 144
173 176 168 161 156 156 148 146 141 140 140 141 145 146 141 132 127 125 116 112 108 107 102 96 96 102 113 128 138 144 150 158 165 166 171 171 170 167 165 163 161 159 158
179 178 173 169 167 161 151 157 156 155 156 158 159 162 159 152 150 145 135 131 125 120 118 111 103 100 117 135 151 161 161 169 175 179 181 184 183 182 179 179 178 175 175
183 181 175 176 173 165 165 165 161 167 168 169 176 180 179 175 169 162 154 153 154 148 136 125 113 108 123 144 158 168 172 176 183 186 189 194 196 194 194 196 195 192 193
184 180 179 179 173 174 174 177 173 174 175 179 189 193 192 191 186 178 174 182 190 173 150 122 103 94 109 134 159 175 177 181 188 193 195 202 208 210 210 209 207 207 208
179 179 182 186 180 180 180 178 172 176 183 191 194 195 201 203 197 185 185 199 193 170 155 133 120 105 111 140 173 191 187 191 200 203 206 210 214 219 224 222 218 218 220
181 179 182 185 182 183 180 178 176 178 190 197 196 198 204 206 203 192 194 202 185 166 163 172 148 147 159 171 198 212 206 212 215 215 217 218 219 223 229 233 232 230 231
181 180 183 186 181 176 173 171 175 182 193 197 198 205 204 205 203 196 195 195 180 168 174 170 159 144 159 170 186 208 244 234 226 226 227 226 226 227 230 233 237 240 240
180 183 187 186 181 175 178 184 187 196 195 197 204 207 204 203 201 196 196 188 184 187 190 179 163 164 172 141 105 2 322 257 238 234 233 232 233 231 231 233 235 239 243
187 189 190 191 186 185 189 186 181 172 187 196 200 203 206 205 201 201 194 192 189 184 184 184 171 163 175 163 151 124 326 321 280 240 230 230 235 233 234 235 235 237 240
192 193 195 194 191 189 181 166 149 134 126 178 198 203 207 205 204 201 198 197 193 190 196 196 183 178 186 190 178 160 174 235 284 289 250 238 233 230 237 241 240 239 240
195 189 189 189 188 187 179 178 177 185 194 200 196 200 201 204 206 204 199 199 195 195 199 201 194 189 178 196 200 205 195 172 190 287 295 260 246 239 239 241 242 242 240
188 185 186 184 187 184 184 189 190 197 199 182 178 193 201 204 207 207 202 199 198 201 206 203 192 194 194 196 195 188 192 197 202 207 263 284 276 253 245 243 244 246 244
178 182 183 185 190 186 187 191 195 197 189 179 189 200 205 204 206 209 206 201 203 204 207 208 203 200 204 204 205 197 187 189 201 202 230 253 263 269 257 247 243 245 247
Height
1524 1526 1527 1529 1530 1531 1532 1533 1534 1535 1536 1537 1538 1539 1540 1541 1543 1544 1545 1547 1548 1549 1550 1551 1552 1554 1555 1556 1557 1558 1559 1560 1562 1563 1564 1565 1566 1567 1568 1569 1570 1571 1572
1524 1527 1529 1531 1532 1533 1534 1535 1536 1537 1538 1539 1541 1542 1543 1544 1545 1547 1548 1549 1551 1552 1553 1554 1555 1556 1557 1559 1560 1561 1562 1563 1564 1565 1566 1567 1569 1570 1571 1572 1573 1574 1575
1525 1528 1530 1532 1534 1535 1536 1537 1539 1540 1541 1542 1543 1544 1546 1547 1548 1550 1551 1552 1553 1554 1555 1557 1558 1559 1560 1561 1562 1564 1565 1566 1567 1568 1569 1570 1571 1573 1573 1574 1575 1576 1578
1527 1529 1532 1534 1536 1537 1538 1540 1541 1542 1543 1544 1546 1547 1548 1550 1551 1552 1553 1555 1556 1557 1558 1559 1560 1562 1563 1564 1565 1566 1567 1569 1570 1571 1572 1573 1574 1575 1576 1577 1578 1579 1580
1528 1531 1534 1536 1537 1539 1540 1542 1543 1544 1546 1547 1548 1550 1551 1552 1554 1555 1556 1557 1558 1560 1561 1562 1563 1564 1566 1567 1568 1569 1570 1571 1572 1573 1574 1576 1577 1578 1579 1580 1581 1582 1583
1530 1533 1535 1538 1540 1541 1543 1544 1546 1547 1548 1550 1551 1552 1554 1555 1556 1557 1559 1560 1561 1562 1563 1565 1566 1567 1568 1570 1571 1572 1573 1574 1575 1576 1577 1578 1579 1580 1581 1582 1583 1584 1585
1532 1535 1537 1540 1542 1543 1545 1546 1548 1549 1551 1552 1553 1555 1556 1557 1559 1560 1561 1562 1563 1565 1566 1567 1569 1570 1571 1572 1574 1574 1576 1577 1577 1578 1579 1580 1581 1583 1584 1585 1585 1586 1587
1533 1536 1539 1541 1543 1545 1547 1549 1550 1552 1553 1554 1556 1557 1558 1560 1561 1562 1564 1565 1566 1567 1569 1570 1571 1573 1574 1575 1576 1577 1578 1579 1580 1581 1582 1583 1584 1585 1586 1587 1588 1588 1589
1536 1538 1540 1543 1545 1547 1549 1551 1552 1554 1555 1556 1558 1559 1561 1562 1563 1565 1566 1567 1568 1570 1571 1573 1574 1575 1576 1577 1578 1579 1580 1581 1582 1583 1584 1585 1586 1587 1588 1589 1590 1590 1591
1537 1539 1542 1544 1546 1548 1550 1552 1554 1556 1557 1558 1560 1561 1563 1564 1565 1567 1568 1569 1571 1572 1574 1575 1576 1578 1579 1580 1581 1582 1582 1583 1584 1585 1586 1587 1588 1589 1590 1590 1591 1592 1593
1537 1540 1543 1545 1547 1550 1552 1554 1556 1557 1559 1560 1562 1563 1564 1566 1567 1569 1570 1572 1573 1575 1576 1577 1579 1580 1581 1582 1583 1584 1585 1585 1586 1587 1588 1589 1590 1591 1591 1592 1593 1594 1594
1536 1540 1543 1546 1548 1551 1553 1555 1557 1558 1560 1562 1563 1565 1566 1567 1569 1570 1572 1573 1575 1577 1578 1579 1581 1582 1583 1584 1585 1586 1587 1587 1588 1589 1589 1590 1591 1592 1593 1593 1594 1595 1596
1536 1539 1543 1546 1549 1551 1553 1556 1558 1559 1561 1563 1565 1566 1568 1569 1570 1572 1573 1575 1577 1578 1579 1581 1582 1584 1585 1586 1587 1587 1588 1589 1589 1590 1591 1592 1592 1593 1594 1595 1595 1596 1597
1536 1539 1543 1546 1549 1552 1554 1556 1558 1560 1562 1564 1566 1567 1569 1570 1572 1573 1575 1576 1578 1580 1581 1582 1584 1585 1586 1587 1588 1589 1590 1590 1591 1591 1592 1593 1593 1594 1595 1596 1596 1597 1598
1535 1539 1542 1546 1549 1552 1554 1557 1559 1561 1563 1565 1567 1569 1570 1572 1573 1575 1576 1578 1579 1581 1582 1584 1585 1586 1587 1589 1589 1590 1591 1591 1592 1592 1593 1593 1594 1595 1595 1596 1597 1597 1598
1535 1539 1542 1545 1549 1552 1555 1557 1560 1562 1564 1566 1568 1570 1571 1573 1575 1576 1577 1579 1581 1582 1583 1585 1586 1587 1588 1589 1590 1591 1592 1592 1592 1593 1593 1594 1594 1595 1596 1596 1597 1598 1598
1535 1538 1542 1545 1548 1552 1555 1557 1560 1562 1565 1566 1568 1570 1572 1573 1575 1577 1578 1580 1581 1583 1584 1585 1587 1588 1589 1589 1590 1591 1592 1592 1593 1593 1594 1594 1595 1595 1596 1596 1597 1597 1598
1535 1538 1541 1544 1547 1551 1554 1557 1560 1562 1565 1567 1568 1570 1572 1574 1575 1577 1579 1580 1582 1583 1584 1586 1587 1588 1589 1589 1590 1591 1592 1592 1593 1593 1594 1594 1594 1595 1595 1596 1596 1597 1597
1534 1537 1540 1543 1546 1549 1553 1556 1559 1561 1564 1566 1568 1570 1572 1573 1575 1577 1578 1580 1582 1583 1584 1585 1586 1588 1589 1589 1590 1591 1591 1592 1592 1593 1593 1594 1594 1594 1595 1595 1595 1596 1596
1533 1536 1539 1542 1546 1549 1552 1555 1557 1560 1562 1564 1567 1569 1571 1573 1574 1576 1578 1579 1581 1582 1583 1585 1586 1587 1588 1589 1589 1590 1590 1591 1591 1592 1592 1593 1593 1593 1594 1594 1594 1595 1595
1531 1534 1537 1540 1543 1546 1549 1551 1554 1556 1560 1562 1565 1567 1569 1571 1573 1575 1576 1578 1579 1581 1582 1584 1585 1586 1587 1588 1588 1589 1589 1589 1589 1590 1590 1591 1592 1592 1592 1593 1593 1593 1593
1527 1531 1534 1537 1541 1544 1547 1550 1553 1555 1558 1560 1563 1565 1567 1569 1571 1573 1575 1576 1578 1579 1580 1582 1583 1584 1585 1586 1587 1587 1587 1588 1587 1588 1588 1589 1589 1590 1591 1591 1591 1591 1592
1523 1527 1531 1535 1538 1541 1545 1548 1551 1553 1556 1558 1560 1562 1564 1567 1569 1570 1572 1574 1575 1577 1578 1579 1581 1582 1583 1584 1585 1586 1586 1585 1586 1586 1586 1586 1587 1588 1588 1589 1589 1589 1589
1519 1524 1528 1532 1536 1539 1542 1545 1547 1549 1551 1554 1557 1559 1562 1564 1566 1567 1569 1570 1572 1574 1576 1577 1578 1579 1581 1581 1582 1583 1584 1584 1585 1584 1584 1584 1585 1585 1585 1586 1586 1586 1587
1517 1521 1525 1529 1533 1536 1539 1542 1545 1547 1549 1552 1554 1557 1559 1560 1562 1564 1566 1568 1569 1571 1572 1574 1575 1576 1577 1578 1579 1580 1581 1582 1582 1582 1581 1582 1582 1582 1583 1583 1583 1583 1583
1515 1519 1522 1526 1529 1533 1536 1539 1541 1544 1546 1549 1551 1553 1555 1557 1559 1560 1562 1564 1566 1568 1569 1571 1572 1573 1574 1575 1576 1577 1578 1578 1579 1579 1579 1578 1579 1579 1580 1580 1580 1580 1580